User: anonymous   Login
Location: Mount Wilson Observatory
(34.2257°N, 118.0571°W)
Time: 02:12:19
(UTC-07:00)
Language:

ATLAS 3B CENTAUR R/B - Orbit

View from above orbital plane
View from above orbital plane
View from above satellite
View from above satellite

Ground track
Ground track

The orbit data is extracted from the following two-line orbital elements,

1 28118U 03057B   16204.39800837  .00058582  00000-0  90955-3 0  9995
2 28118  28.1376 252.1683 3261102 321.9419  18.9879  8.95544327259432
Epoch (UTC): 22 July 2016 09:33:07
Eccentricity: 0.3261102
inclination: 28.1376°
perigee height: 223 km
apogee height: 6611 km
right ascension of ascending node: 252.1683°
argument of perigee: 321.9419°
revolutions per day: 8.95544327
mean anomaly at epoch: 18.9879°
orbit number at epoch: 25943

The dashed part of the orbit path shows where the satellite is in the earth's shadow,  

DLR